Theta_e
320 324 332 333 334 334 334 333 333 333 332 332 331 329 329 328 328 327 327 326 326 328 329 329 328 329 328 327 327 327 327 326 325 325 324 319 317 319 323 331 333 329 331
322 324 330 330 331 331 331 330 330 330 330 329 329 328 327 327 326 326 325 325 324 326 327 327 327 327 326 324 325 325 325 325 324 323 322 314 312 315 321 327 333 329 332
321 323 324 328 329 329 328 328 328 328 327 327 327 327 326 325 325 324 324 323 324 325 325 325 325 324 323 323 323 323 323 323 323 322 318 304 303 314 318 321 325 330 329
321 321 321 326 326 326 326 325 325 325 325 325 325 324 324 323 323 323 323 322 322 323 323 323 323 323 323 322 322 321 322 321 321 319 306 305 304 313 317 319 321 324 325
318 318 318 323 323 323 322 322 323 323 323 322 322 323 323 322 321 321 320 320 320 321 321 321 321 320 319 319 319 320 319 319 318 309 303 302 304 308 318 320 319 321 322
314 313 317 321 321 321 320 320 319 320 320 320 320 319 320 320 319 319 318 318 318 318 318 318 318 318 318 317 317 317 317 317 315 303 302 302 302 313 319 320 320 320 321
311 308 309 315 316 317 319 318 318 318 318 318 315 315 316 315 314 313 314 314 313 313 313 313 313 313 312 311 310 309 308 308 302 299 298 298 299 313 317 319 320 320 321
306 304 303 307 313 316 315 316 316 316 317 314 312 311 309 309 308 308 307 309 309 309 309 310 309 309 308 308 306 305 305 304 298 292 293 294 301 308 314 317 319 321 321
302 300 298 298 302 307 312 314 315 314 310 308 307 305 303 303 302 303 303 305 306 306 306 305 306 305 305 304 302 302 301 301 289 290 292 293 301 308 312 314 316 318 319
297 296 295 294 295 296 297 306 309 307 305 303 302 301 299 297 298 298 299 301 302 302 302 302 302 302 301 299 298 298 298 295 286 287 289 291 302 308 310 312 314 315 318
296 293 293 292 292 294 294 296 297 300 300 298 296 297 292 288 289 289 295 298 298 298 298 299 299 298 296 293 293 295 294 286 286 287 288 296 301 305 307 309 311 312 314
293 291 290 290 290 291 295 290 290 291 291 290 289 288 288 287 288 290 290 294 294 294 294 295 295 293 289 285 285 289 285 285 286 286 288 295 299 303 306 307 309 310 311
295 292 290 289 288 289 289 288 287 288 287 288 287 287 287 286 285 285 284 284 284 288 284 285 284 284 284 284 284 284 285 285 286 286 287 293 297 300 303 305 306 308 309
293 291 289 288 287 287 287 286 286 286 286 286 286 287 286 284 284 283 283 283 283 283 282 282 282 283 283 284 284 284 284 284 284 284 285 291 294 298 301 303 305 306 308
292 289 287 286 286 287 286 285 285 285 285 285 284 285 285 284 283 283 283 282 282 282 282 282 283 283 282 283 284 283 283 283 283 284 284 289 291 295 297 300 302 303 305
292 289 287 286 286 286 285 285 285 284 284 284 283 284 285 285 283 283 282 282 282 282 282 282 282 281 282 283 283 283 282 282 283 283 283 284 289 291 294 296 298 301 303
290 289 286 286 286 285 284 284 284 284 284 283 283 283 284 284 283 282 281 281 281 282 282 282 281 282 281 281 281 281 282 282 282 282 282 282 283 288 290 293 295 297 300
289 287 286 289 285 284 284 283 283 283 283 282 282 283 284 284 283 281 280 280 281 281 280 280 279 278 278 279 279 279 280 281 281 281 282 282 282 282 285 289 291 294 296
287 286 285 285 284 284 283 283 282 282 282 282 282 282 282 283 282 280 280 280 280 279 278 278 277 277 277 277 277 277 278 278 280 281 280 281 280 281 282 284 287 288 290
285 284 284 284 283 283 283 282 282 282 282 281 282 282 283 282 281 280 279 278 279 277 276 277 276 277 275 275 276 276 276 276 276 277 277 279 280 280 279 279 280 281 286
283 283 283 282 282 282 281 280 280 279 281 281 283 283 282 281 281 279 277 277 277 276 276 276 275 274 273 274 272 272 273 274 274 276 276 277 278 279 279 279 279 280 280
283 283 282 282 281 281 281 280 280 279 280 280 280 280 280 280 280 277 276 277 276 274 274 273 273 271 272 273 270 270 268 270 274 274 274 274 275 275 276 278 278 278 279
282 281 282 281 280 279 280 279 278 279 279 278 277 277 278 279 277 277 276 275 274 274 272 272 272 270 268 270 270 268 265 265 267 270 271 272 273 273 274 276 277 278 278
280 281 281 280 280 279 278 277 276 275 273 274 275 276 276 277 275 276 275 274 273 273 271 271 271 269 269 267 269 270 269 268 264 263 269 270 271 272 272 273 274 277 277
280 278 278 278 278 277 277 276 275 274 274 275 274 274 274 274 275 274 274 272 272 271 270 270 269 269 269 267 267 266 267 267 267 264 261 264 268 270 271 272 272 274 276
277 277 277 277 277 277 277 276 275 273 273 272 272 272 272 272 273 273 272 272 270 270 269 269 269 268 268 268 268 267 266 264 264 264 263 264 264 267 269 270 271 273 275
Wind_Speed
5 7 12 12 13 14 14 14 14 14 13 13 13 11 10 10 9 10 10 10 11 11 12 12 12 12 13 14 14 14 14 14 14 15 15 16 16 16 13 12 9 4 9
2 5 8 9 11 12 13 13 14 13 13 12 11 10 10 10 10 11 11 12 12 12 13 12 12 11 13 13 14 14 14 14 14 15 15 15 18 17 16 17 2 4 9
3 3 4 8 10 11 12 12 13 12 12 11 11 12 12 13 13 13 13 13 13 13 13 13 13 13 14 14 14 15 14 14 14 15 15 6 8 18 18 17 17 10 11
3 2 4 8 9 11 11 11 11 11 12 12 13 13 13 13 13 13 14 14 14 15 15 15 14 14 14 14 14 14 15 15 15 14 6 7 8 16 18 17 17 16 16
3 3 4 7 8 9 11 12 11 11 11 10 11 12 12 11 11 11 13 13 14 14 14 15 15 15 15 15 15 16 16 16 16 11 7 6 5 13 18 17 15 16 16
4 4 6 7 8 9 10 11 11 10 10 10 13 13 13 13 13 14 14 14 15 16 16 17 15 16 17 18 18 19 19 20 16 7 6 8 8 17 18 18 17 15 15
4 4 5 8 9 8 11 11 11 10 8 11 11 12 13 13 13 12 14 14 15 16 16 16 16 16 17 17 18 18 18 17 10 7 7 8 6 19 19 18 18 17 17
5 4 6 8 11 10 9 8 8 7 10 10 12 12 12 13 13 14 14 15 15 15 15 16 16 17 17 18 19 19 19 19 8 7 8 7 16 20 20 20 19 20 19
6 5 4 5 6 9 10 11 9 9 9 10 10 11 13 14 14 14 14 14 14 15 16 16 17 18 19 19 20 20 20 21 8 7 9 6 18 20 21 22 22 21 21
4 3 3 4 5 6 5 10 10 10 9 10 11 11 12 12 12 14 14 15 16 16 17 18 19 20 20 20 21 21 21 17 6 7 6 6 20 22 22 22 22 24 24
2 2 3 4 4 4 4 7 9 10 10 10 9 11 8 4 5 7 13 15 17 17 18 19 19 19 18 16 18 19 19 5 7 6 5 17 23 23 22 24 23 23 25
3 2 2 3 5 5 4 5 5 5 4 4 4 5 4 4 5 7 9 13 14 15 16 18 20 19 14 5 6 13 5 7 6 6 6 22 24 24 25 24 24 24 24
5 3 2 3 4 4 4 2 2 3 3 4 6 4 3 3 3 3 3 3 3 10 4 8 7 5 6 5 6 6 7 7 5 5 11 23 24 26 25 26 25 25 26
6 4 3 3 3 3 2 3 3 3 2 3 3 5 4 3 4 4 2 4 3 3 5 4 3 6 7 6 7 8 8 7 6 6 9 21 24 25 25 27 27 26 25
6 5 5 4 3 3 3 3 3 3 3 3 4 5 4 3 4 4 4 4 4 4 4 4 6 6 8 8 8 8 8 9 9 6 6 20 21 25 28 28 28 28 28
6 7 5 4 3 3 3 3 3 2 3 3 4 5 6 4 4 4 5 5 5 4 5 6 6 7 7 7 8 10 11 10 10 10 8 8 23 25 27 26 26 27 27
3 5 6 5 3 4 3 2 2 3 3 3 3 5 6 5 5 5 4 4 5 5 7 6 7 7 7 8 10 9 10 11 10 10 9 9 11 21 24 25 26 25 25
5 7 6 4 5 4 3 2 2 3 3 3 3 3 5 5 4 5 4 4 5 5 5 5 6 8 8 8 9 9 9 10 11 12 11 9 9 10 14 21 20 22 22
6 6 5 5 4 3 2 2 2 3 3 3 3 3 5 5 7 5 5 4 6 4 5 5 6 7 8 8 9 10 10 10 10 10 11 11 13 11 6 12 21 22 22
6 6 5 4 4 3 2 2 2 3 3 3 3 4 6 6 7 5 4 5 4 4 5 6 8 6 8 9 11 11 9 10 10 10 11 11 9 11 6 9 8 8 22
5 6 5 5 3 3 3 2 2 2 2 3 3 6 5 6 7 7 4 6 5 6 7 8 8 10 8 8 10 10 9 13 8 8 9 7 10 11 11 10 8 6 7
5 4 4 5 6 4 3 2 1 2 2 2 3 5 6 7 7 9 7 6 7 7 8 9 10 9 7 7 7 11 7 10 3 10 10 10 11 11 13 13 12 11 10
4 4 6 6 6 6 6 3 3 2 2 2 4 5 6 6 7 7 6 7 8 7 7 9 8 9 9 8 7 5 6 6 15 9 11 10 11 9 10 12 14 15 12
4 6 7 6 6 6 5 4 4 2 3 3 5 4 6 5 7 7 8 7 8 7 9 8 8 8 8 9 7 6 9 11 8 12 4 10 11 13 15 13 12 14 14
6 6 6 7 7 5 5 4 3 4 3 3 3 7 6 7 7 9 9 9 9 7 8 9 9 9 7 7 7 8 8 8 8 9 16 11 11 10 12 12 12 13 15
6 6 6 6 5 4 4 5 5 4 6 6 6 7 6 6 6 7 10 8 8 8 9 8 9 10 9 8 8 8 7 6 8 8 11 12 15 12 10 12 12 12 13
Wind_Direction
12 358 26 39 45 47 48 48 46 44 42 37 33 27 20 16 14 11 10 6 1 358 356 352 346 351 351 348 347 348 348 350 349 350 352 351 343 333 319 306 276 307 309
41 14 30 43 49 47 47 44 41 36 33 31 26 20 14 9 7 5 7 4 1 357 353 350 344 350 347 342 345 345 343 344 346 346 353 352 343 333 329 331 240 272 296
70 18 3 48 44 42 38 37 34 29 25 21 16 12 8 5 5 3 3 2 359 355 350 345 343 343 341 342 342 341 339 340 342 340 353 345 334 334 332 328 325 289 290
87 20 20 45 43 43 36 35 32 27 23 20 16 10 6 5 2 3 359 356 355 352 348 343 343 349 346 341 337 334 335 334 336 1 354 338 329 331 325 318 313 308 309
107 38 23 46 42 39 32 29 27 24 21 19 14 9 3 3 360 357 357 354 353 349 349 349 343 342 343 339 336 336 332 330 333 7 346 329 329 326 321 313 307 300 296
81 31 24 46 36 34 29 28 27 24 23 22 20 10 13 5 11 8 7 360 4 3 358 356 351 357 360 353 353 349 348 345 350 356 333 326 330 317 321 316 307 297 293
116 52 32 41 34 28 27 22 25 22 25 31 22 21 22 19 19 12 7 5 3 1 1 0 360 360 354 351 348 347 341 338 341 349 336 321 317 319 314 310 309 302 296
126 65 37 26 38 47 30 28 21 21 36 28 24 24 23 21 19 19 13 12 9 3 4 0 358 354 350 348 347 343 340 336 356 342 328 315 321 317 312 307 303 299 295
76 62 43 33 42 45 42 41 36 49 43 34 31 33 31 26 27 24 19 13 9 7 3 1 357 350 348 346 343 342 338 335 355 328 319 321 314 316 312 308 304 297 293
85 70 47 44 44 49 41 42 45 48 45 42 38 39 38 31 27 21 17 9 8 6 1 359 356 351 349 347 341 338 336 338 333 319 314 305 316 316 311 307 305 302 296
115 78 43 38 46 48 60 39 39 38 37 36 31 27 30 23 10 22 6 9 6 3 358 355 351 349 345 340 338 335 335 319 322 311 305 312 316 311 307 305 301 299 297
202 194 97 57 44 44 50 32 34 36 36 35 29 20 21 18 1 14 4 5 4 359 354 350 346 346 344 329 324 333 324 317 310 310 309 313 312 309 306 301 298 294 291
197 172 121 75 67 61 49 41 27 25 22 20 19 6 354 3 351 352 351 346 340 349 342 341 334 331 322 318 318 314 314 315 312 306 311 313 312 308 304 301 297 294 291
188 177 119 94 82 69 65 46 35 30 30 19 2 358 5 352 341 339 343 331 333 322 327 317 308 310 308 301 307 309 313 313 310 305 303 308 309 305 304 303 298 295 292
184 165 173 142 116 103 76 53 38 29 23 16 12 3 10 352 343 337 340 333 331 324 308 309 318 316 315 308 308 304 307 304 303 298 299 303 305 307 304 300 298 295 290
171 184 162 148 136 111 93 80 61 41 31 22 9 358 6 15 360 0 345 342 334 332 329 323 311 315 308 300 301 305 302 298 294 294 293 302 304 302 300 299 299 293 292
171 154 168 155 138 102 89 92 77 35 37 25 0 5 19 7 8 354 336 332 327 328 320 320 318 310 316 312 307 304 298 292 290 285 293 296 293 297 297 300 296 296 287
156 171 164 152 125 110 125 93 54 44 36 16 8 18 3 3 6 352 335 323 320 316 318 319 318 322 311 315 313 305 302 299 296 292 290 288 292 291 293 297 298 303 303
162 147 143 148 145 137 97 88 61 48 28 11 8 16 360 5 356 346 330 319 322 328 318 312 324 308 317 315 309 310 304 298 298 294 286 281 291 291 286 310 307 303 307
139 137 151 144 134 98 54 11 18 19 10 7 9 7 6 358 342 331 314 317 315 314 315 319 316 326 319 314 309 306 301 298 290 290 289 288 284 290 294 302 293 301 298
125 152 155 143 88 56 37 12 9 348 331 350 16 5 355 340 337 336 338 324 327 331 328 329 330 322 319 324 313 312 298 281 283 291 296 314 309 301 294 291 290 278 299
152 140 110 95 70 56 62 28 20 308 293 325 10 346 349 335 346 334 332 329 345 330 333 337 333 321 321 342 323 313 322 307 290 339 312 302 304 310 297 292 290 277 279
101 113 113 97 86 60 48 25 357 332 340 343 340 326 335 339 340 330 333 341 341 343 332 328 321 345 320 320 327 309 316 296 323 302 302 289 292 291 288 293 296 283 270
101 92 89 89 81 69 48 43 26 354 325 323 322 308 315 332 328 332 338 338 332 330 318 320 327 319 316 314 318 303 291 296 308 312 323 334 306 301 303 301 296 291 278
98 104 92 82 72 61 55 37 17 349 320 297 299 315 330 329 328 332 328 331 326 323 313 309 312 315 310 306 303 304 296 294 294 293 303 321 298 300 300 289 283 282 277
79 73 72 75 75 55 46 26 3 346 330 332 335 329 328 321 321 322 323 315 321 308 309 311 310 305 303 294 292 292 296 292 295 293 291 302 301 301 296 288 288 292 288